Weather History for Alliance, NE

Change the Weather History Date:

Tuesday, November 20, 2012

  Actual Average Record
Temperature  
Mean Temperature 46 °F 31 °F  
Max Temperature 69 °F 46 °F 72 °F (1989)
Min Temperature 22 °F 16 °F -7 °F (1937)
Degree Days  
Heating Degree Days 19 34  
Month to date heating degree days 518 593  
Since 1 July heating degree days 1288 1435  
Cooling Degree Days 0 0  
Month to date cooling degree days 0 0  
Year to date cooling degree days 959 564  
Moisture  
Dew Point 23 °F    
Average Humidity 53    
Maximum Humidity 88    
Minimum Humidity 17    
Precipitation  
Precipitation 0.00 in 0.01 in 0.93 in (1979)
Month to date precipitation 0.08 0.31  
Year to date precipitation 6.61 15.20  
Sea Level Pressure  
Sea Level Pressure 30.10 in    
Wind  
Wind Speed 9 mph (SW)    
Max Wind Speed 24 mph    
Max Gust Speed 29 mph    
Visibility 10 miles    
Events      
T = Trace of Precipitation, MM = Missing Value Source: NWS Daily Summary

Daily Weather History Graph

Daily Weather History Graph

Search for Another Location

Airport:

Trip Planner

Search our weather history database for the weather conditions in past years. The results will help you decide how hot, cold, wet, or windy it might be!

Date:

Astronomy

Nov. 20, 2012 Rise Set
Actual Time 6:47 AM MST 4:25 PM MST
Civil Twilight 6:17 AM MST 4:56 PM MST
Nautical Twilight 5:43 AM MST 5:30 PM MST
Astronomical Twilight 5:10 AM MST 6:03 PM MST
Moon 12:19 PM MST (11/20) No Moon Set
Length of Visible Light 10h 38m
Length of Day
9h 37m
First Quarter, 52% of the Moon is Illuminated
Nov 20
First Quarter
Nov 28
Full
Dec 6
Last Quarter
Dec 13
New
Dec 19
First Quarter

Hourly Weather History & Observations

Time (MST) Temp. Windchill Dew Point Humidity Pressure Visibility Wind Dir Wind Speed Gust Speed Precip Events Conditions
12:53 AM 25.0 °F 19.3 °F 21.0 °F 85% 30.17 in 10.0 mi West 4.6 mph - N/A   Clear
1:53 AM 25.0 °F 18.1 °F 21.9 °F 88% 30.17 in 10.0 mi WNW 5.8 mph - N/A   Clear
2:53 AM 23.0 °F 17.0 °F 19.9 °F 88% 30.17 in 10.0 mi WSW 4.6 mph - N/A   Clear
3:53 AM 25.0 °F 20.7 °F 19.0 °F 78% 30.16 in 10.0 mi South 3.5 mph - N/A   Clear
4:53 AM 32.0 °F 26.4 °F 24.1 °F 73% 30.16 in 10.0 mi West 5.8 mph - N/A   Clear
5:53 AM 27.0 °F 20.5 °F 21.9 °F 81% 30.18 in 10.0 mi WSW 5.8 mph - N/A   Clear
6:53 AM 26.1 °F 20.5 °F 21.0 °F 81% 30.21 in 10.0 mi West 4.6 mph - N/A   Clear
7:53 AM 37.0 °F 33.3 °F 30.9 °F 79% 30.18 in 10.0 mi SSW 4.6 mph - N/A   Clear
8:53 AM 48.9 °F - 30.0 °F 48% 30.15 in 10.0 mi West 4.6 mph - N/A   Clear
9:53 AM 59.0 °F - 24.1 °F 26% 30.14 in 10.0 mi WSW 18.4 mph - N/A   Clear
10:53 AM 62.1 °F - 23.0 °F 22% 30.12 in 10.0 mi WSW 15.0 mph - N/A   Clear
11:53 AM 66.0 °F - 21.0 °F 18% 30.07 in 10.0 mi WSW 20.7 mph 27.6 mph N/A   Clear
12:53 PM 66.9 °F - 21.0 °F 17% 30.05 in 10.0 mi WSW 21.9 mph 27.6 mph N/A   Clear
1:53 PM 68.0 °F - 21.9 °F 17% 30.02 in 10.0 mi SW 16.1 mph 23.0 mph N/A   Clear
2:53 PM 68.0 °F - 21.0 °F 17% 30.01 in 10.0 mi WSW 15.0 mph - N/A   Clear
3:53 PM 62.1 °F - 23.0 °F 22% 30.04 in 10.0 mi WSW 9.2 mph - N/A   Clear
4:53 PM 51.1 °F - 23.0 °F 33% 30.05 in 10.0 mi SSW 8.1 mph - N/A   Clear
5:53 PM 43.0 °F 37.2 °F 23.0 °F 45% 30.09 in 10.0 mi SSW 10.4 mph - N/A   Clear
6:53 PM 43.0 °F 37.7 °F 24.1 °F 47% 30.09 in 10.0 mi SW 9.2 mph - N/A   Clear
7:53 PM 39.0 °F 35.7 °F 23.0 °F 53% 30.07 in 10.0 mi SW 4.6 mph - N/A   Clear
8:53 PM 42.1 °F - 23.0 °F 47% 30.02 in 10.0 mi Calm Calm - N/A   Clear
9:53 PM 35.1 °F 27.9 °F 23.0 °F 61% 30.01 in 10.0 mi SW 9.2 mph - N/A   Clear
10:53 PM 37.0 °F 34.5 °F 21.9 °F 54% 29.99 in 10.0 mi SSE 3.5 mph - N/A   Clear
11:53 PM 32.0 °F - 21.9 °F 66% 29.98 in 10.0 mi Calm Calm - N/A   Clear